Flag for Martinique Weather past 2 weeks in Fort-de-France, Martinique

Now
82 °F

Passing clouds.


Feels Like: 85 °F
Forecast: N/A
Wind: 15 mph from East

Location: Le Lamentin Airport

Current Time: May 25, 2015 at 6:00:05 PM

Latest Report: May 25, 2015 at 5:30 PM


Visibility: N/A

Pressure: 29.98 "Hg

Humidity: 62%

Dew point: 68 °F

Location of Fort-de-FranceLocation

Historic Weather in Fort-de-France — Graph

°F

Fort-de-France temperature yesterday

Maximum temperature yesterday: 88 °F (at 10:30 AM)
Minimum temperature yesterday: 79 °F (at 12:30 AM)
Average temperature yesterday: 82 °F

Past Weeks' High & Low Weather Summary

 TemperatureHumidityPressure
High90 °F (May 19, 1:30 PM)89% (May 18, 3:00 AM)30.09 "Hg (May 18, 3:00 AM)
Low77 °F (May 15, 4:30 AM)49% (May 14, 2:00 PM)29.92 "Hg (May 20, 4:00 PM)
Average82 °F69%30.01 "Hg
* Reported May 10 4:00 PM — May 25 4:30 PM, Fort-de-France, Weather by CustomWeather, © 2015

Note: Actual official high and low records may vary slightly from our data, if they occured in-between our weather recording intervals... More about our weather records

Advertising

Fort-de-France weather history for previous 24 hours

 ConditionsComfort  
Time TempWeatherWind HumidityBarometerVisibility
4:30 PM
Mon, May 25
84 °FPassing clouds.13 mph58%29.98 "HgN/A
4:00 PM84 °FPassing clouds.16 mph58%29.98 "HgN/A
3:30 PM86 °FPassing clouds.15 mph55%29.98 "HgN/A
3:00 PM86 °FScattered clouds.15 mph52%29.98 "HgN/A
2:30 PM86 °FScattered clouds.16 mph55%29.98 "HgN/A
2:00 PM86 °FScattered clouds.17 mph52%29.98 "HgN/A
1:30 PM86 °FPassing clouds.16 mph52%29.98 "HgN/A
1:00 PM86 °FPassing clouds.17 mph55%29.98 "HgN/A
12:30 PM86 °FScattered clouds.20 mph55%30.01 "HgN/A
12:00 PM86 °FPassing clouds.17 mph55%30.01 "HgN/A
11:30 AM86 °FPartly sunny.17 mph52%30.01 "HgN/A
11:00 AM88 °FPassing clouds.17 mph52%30.04 "HgN/A
10:30 AM86 °FPartly sunny.18 mph55%30.04 "HgN/A
10:00 AM86 °FPassing clouds.18 mph55%30.04 "HgN/A
9:30 AM84 °FBroken clouds.20 mph62%30.04 "HgN/A
9:00 AM84 °FPartly sunny.18 mph62%30.04 "HgN/A
8:30 AM84 °FPartly sunny.17 mph58%30.04 "HgN/A
8:00 AM82 °FScattered clouds.16 mph66%30.04 "HgN/A
7:30 AM82 °FPassing clouds.18 mph62%30.01 "HgN/A
7:00 AM81 °FPassing clouds.15 mph66%30.01 "HgN/A
6:30 AM79 °FScattered clouds.13 mph70%30.01 "HgN/A
6:00 AM79 °FScattered clouds.10 mph74%30.01 "HgN/A
5:30 AM79 °FClear.12 mph74%29.98 "HgN/A
5:00 AM79 °FPartly cloudy.10 mph74%29.98 "HgN/A
4:30 AM79 °FPassing clouds.10 mph74%29.98 "HgN/A
4:00 AM79 °FPartly cloudy.10 mph74%29.98 "HgN/A
3:30 AM79 °FPassing clouds.12 mph74%29.98 "HgN/A
3:00 AM79 °FPartly cloudy.14 mph74%29.98 "HgN/A
2:30 AM79 °FPassing clouds.13 mph74%29.98 "HgN/A
2:00 AM79 °FPartly cloudy.13 mph74%29.98 "HgN/A
1:30 AM79 °FPartly cloudy.13 mph74%29.98 "HgN/A
1:00 AM81 °FPassing clouds.13 mph70%29.98 "HgN/A
12:30 AM79 °FPassing clouds.12 mph74%30.01 "HgN/A
12:00 AM81 °FPassing clouds.13 mph70%30.01 "HgN/A
11:30 PM
Sun, May 24
81 °FPassing clouds.12 mph70%30.01 "HgN/A
11:00 PM79 °FPartly cloudy.12 mph74%30.04 "HgN/A
10:30 PM81 °FPassing clouds.14 mph70%30.04 "HgN/A
10:00 PM81 °FPartly cloudy.12 mph70%30.04 "HgN/A
9:30 PM79 °FPassing clouds.12 mph70%30.04 "HgN/A
9:00 PM81 °FPassing clouds.13 mph66%30.01 "HgN/A
8:30 PM81 °FPassing clouds.12 mph66%30.01 "HgN/A
8:00 PM81 °FPassing clouds.10 mph70%30.01 "HgN/A
7:30 PM81 °FPassing clouds.10 mph70%30.01 "HgN/A
7:00 PM81 °FPartly cloudy.13 mph70%30.01 "HgN/A
6:30 PM81 °FPassing clouds.13 mph70%30.01 "HgN/A
6:00 PM82 °FBroken clouds.13 mph66%30.01 "HgN/A
Weather by CustomWeather, © 2015

See weather overviewHow to use our weather pages